Location: SBMNH
(34.4407°N, 119.7157°W)
Time: 20:10:25
(UTC-07:00)

X-37B - Pass Details

Date: 21 August 2022
Orbit: 329 x 342 km, 45.0° (Epoch: 29 September)

Event Time Altitude Azimuth Distance (km) Brightness Sun altitude
Rises 20:12:48 0° 235° (SW) 2,074 4.8 -7.5°
Reaches altitude 10° 20:14:47 10° 234° (SW) 1,244 3.6 -7.9°
Maximum altitude 20:17:34 81° 146° (SSE) 335 0.2 -8.4°
Drops below altitude 10° 20:20:22 10° 59° (ENE) 1,253 2.8 -8.9°
Enters shadow 20:21:26 - 59° (ENE) 1,701 3.5 -9.1°
